Weather Roundup
Issued by NWS

Home | Current Version | Previous Version | Text Only | Print | Product List | Glossary On
Versions: 1 2 3 4 5 6 7 8 9 10 11 12 13 14 15 16 17 18 19 20 21 22 23 24 25 26 27 28 29 30 31 32 33 34 35 36 37 38 39 40 41 42 43 44 45 46 47 48 49 50
634
NZUS93 KARX 170610
HRRWXR

CURRENT HOURLY OBSERVATIONS ACROSS
MUCH OF THE UPPER MISSISSIPPI VALLEY
NATIONAL WEATHER SERVICE LA CROSSE WI
1200 AM CST FRI NOV 17 2017


...SOUTHEAST MINNESOTA...


CITY           SKY/WX    TMP DP  RH WIND       PRES   REMARKS
ROCHESTER      CLOUDY    32  28  85 S16G26    29.98F WCI  21
ROCHESTER/MAYO FAIR      33  28  82 SE14G23   29.99S WCI  23
WINONA         CLOUDY    34  28  80 S12       30.05S WCI  25
AUSTIN         CLOUDY    32  27  80 S10G22    29.99R WCI  24
ALBERT LEA     CLOUDY    34  27  75 S16G23    29.96R WCI  23
DODGE CENTER   CLOUDY    32  28  86 S14G23    29.99R WCI  22
PRESTON        CLOUDY    32  27  81 SE15G22   30.01F WCI  21
OWATONNA       CLOUDY    34  28  80 SE17G24   29.95F WCI  23
FARIBAULT      CLOUDY    36  28  75 SE18      29.96S WCI  25
$$

...ELSEWHERE IN MINNESOTA...


CITY           SKY/WX    TMP DP  RH WIND       PRES   REMARKS
MINNEAPOLIS    CLOUDY    34  29  82 SE10      29.96F WCI  26
INTNL FALLS    CLOUDY    29  22  75 SE20G32   29.78F WCI  16
DULUTH         CLOUDY    28  26  92 SE18      29.93F WCI  15
RED WING       CLOUDY    36  25  64 S14       30.00S WCI  27
REDWOOD FALLS  CLOUDY    34  27  75 SE23G35   29.79F WCI  22
MANKATO        CLOUDY    33  28  81 SE23      29.88F WCI  21
WORTHINGTON    CLOUDY    33  27  78 S22G29    29.77F WCI  21
FAIRMONT       CLOUDY    33  28  81 S22       29.88F WCI  21
$$

...SOUTHWEST WISCONSIN...


CITY           SKY/WX    TMP DP  RH WIND       PRES   REMARKS
LA CROSSE      CLOUDY    36  28  73 SE18G28   30.07F WCI  26
PRAIRIE DU CHI CLOUDY    34  27  75 SE8       30.12R WCI  27
BOSCOBEL       CLOUDY    35  27  72 S6        30.15S WCI  30
LONE ROCK      CLOUDY    34  29  82 SE13      30.14F WCI  25
PLATTEVILLE    CLOUDY    33  31  91 SE16      30.11F WCI  22
FORT MC COY    CLOUDY    33  28  82 SE9G16    30.10S WCI  26
CAMP DOUGLAS   CLOUDY    33  27  78 S12G18    30.12R WCI  25
MAUSTON-NEW LI CLOUDY    33  28  81 SE8G17    30.12R WCI  26
VIROQUA        CLOUDY    32  30  93 SE17G24   30.08R WCI  21
WIS DELLS      CLOUDY    32  27  81 S14       30.13F WCI  22
$$

...ELSEWHERE IN WISCONSIN...


CITY           SKY/WX    TMP DP  RH WIND       PRES   REMARKS
MILWAUKEE      CLOUDY    37  32  82 SW7       30.21S WCI  32
MADISON        CLOUDY    33  27  78 S12       30.17R WCI  24
GREEN BAY      CLOUDY    32  27  81 CALM      30.22R
EAU CLAIRE     CLOUDY    33  25  72 SE13      30.05S WCI  24
BLACK RVR FLS  CLOUDY    34  25  71 S5        30.08F WCI  30
MEDFORD        CLOUDY    29  25  83 SE10G16   30.08R WCI  20
WAUSAU         CLOUDY    29  24  82 SE13      30.11F WCI  19
WIS RAPIDS     CLOUDY    32  25  75 SE9G18    30.14F WCI  24
MARSHFIELD     CLOUDY    31  24  75 SE13      30.09S WCI  21
RICE LAKE      CLOUDY    33  26  77 SE15G22   30.03F WCI  22
$$

...NORTHEAST IOWA...


CITY           SKY/WX    TMP DP  RH WIND       PRES   REMARKS
WATERLOO       CLOUDY    32  27  81 SE17      30.03S WCI  21
DUBUQUE        CLOUDY    32  28  85 SE15G22   30.10F WCI  22
DECORAH        CLOUDY    32  28  86 SE15G25   30.04F WCI  22
MASON CITY     CLOUDY    32  27  81 SE17G29   29.98F WCI  21
CHARLES CITY   CLOUDY    32  32 100 SE17G28   30.00F WCI  21
OELWEIN        CLOUDY    32  32 100 SE18      30.06S WCI  20
$$

...ELSEWHERE IN IOWA...


CITY           SKY/WX    TMP DP  RH WIND       PRES   REMARKS
DES MOINES     MOCLDY    35  28  75 SE8       29.99S WCI  29
IOWA CITY      CLOUDY    32  28  85 SE10      30.11F WCI  24
FORT DODGE     CLOUDY    35  28  75 S15G23    29.91F WCI  25
MARSHALLTOWN   CLEAR     31  29  92 SE15G24   30.01S WCI  20
CEDAR RAPIDS   CLOUDY    31  29  92 SE14      30.08R WCI  21
$$

...NORTHERN ILLINOIS...


CITY           SKY/WX    TMP DP  RH WIND       PRES   REMARKS
CHICAGO-OHARE  CLOUDY    38  30  73 S8        30.20S WCI  32
CHICAGO-MIDWAY CLOUDY    38  30  73 S7        30.21S WCI  33
MOLINE         CLOUDY    33  28  81 SE12      30.15S WCI  24
ROCKFORD       CLOUDY    34  28  79 SE9       30.19F WCI  27
PEORIA         CLOUDY    33  30  88 SE12G20   30.18F WCI  24
$$

NOTE: "FAIR" INDICATES FEW OR NO CLOUDS BELOW 12,000 FEET WITH NO
SIGNIFICANT WEATHER AND/OR OBSTRUCTIONS TO VISIBILITY. WIND
SPEEDS ARE IN MILES-PER-HOUR.




USA.gov is the U.S. government's official web portal to all federal, state and local government web resources and services.